RH
74 81 62 64 56 25 29 36 44 43 43 28 37 40 30 35 53 65 68 82 61 60 53 58 56 51 67 93 81 99 73 68 69 98 97 84 37 43 67 47 61 77 83 86 100 82 77
76 85 68 64 62 36 27 34 42 45 49 41 38 44 36 33 52 57 54 54 53 46 40 47 56 49 61 73 89 98 79 62 83 97 89 85 39 47 70 56 68 75 91 99 98 94 86
69 91 79 60 64 54 26 31 40 44 52 48 32 45 40 32 50 57 52 44 46 45 43 43 64 51 61 80 84 98 81 63 75 59 68 82 45 56 58 59 56 80 82 97 72 68 84
70 82 77 64 64 62 22 28 38 42 52 52 40 44 59 32 43 47 48 36 39 43 39 51 62 50 73 80 95 98 90 62 56 85 77 74 55 62 57 59 68 78 77 89 70 64 72
61 72 62 62 74 62 39 22 29 37 48 50 58 38 47 44 27 49 45 38 38 42 54 54 57 55 70 84 95 98 99 79 62 86 78 77 53 78 81 77 79 80 74 80 71 70 64
64 67 62 61 77 62 64 19 23 28 35 50 55 52 41 71 39 33 48 56 62 64 53 64 83 77 77 88 93 93 88 87 99 85 99 91 74 92 85 90 82 72 56 72 69 71 75
55 74 75 59 70 65 60 52 18 21 26 44 48 52 47 60 78 62 55 45 46 47 53 68 81 84 98 70 73 95 89 99 99 99 99 90 84 81 84 96 76 63 70 66 68 72 66
40 68 71 64 58 70 61 63 61 29 19 30 46 44 48 62 79 79 67 70 60 66 79 85 73 76 71 75 71 76 95 98 98 99 99 99 98 88 90 94 70 55 56 64 62 71 69
24 49 67 64 53 53 70 64 62 61 39 21 43 45 48 56 70 82 70 74 77 78 79 92 86 84 74 75 58 76 98 99 98 98 98 100 96 88 90 90 70 74 69 69 64 68 72
17 34 53 60 58 44 50 67 68 62 57 25 29 46 48 56 57 75 76 73 77 74 83 93 87 82 88 89 88 92 98 94 98 99 99 98 88 86 80 79 74 82 70 64 61 62 67
13 20 36 59 59 44 36 50 56 63 57 51 22 41 44 51 55 62 63 66 75 66 85 89 85 68 80 86 96 97 99 99 98 98 89 96 89 88 82 86 80 70 69 63 59 62 65
11 13 22 37 44 39 39 41 45 46 43 42 28 30 41 43 47 50 58 47 58 62 88 89 95 98 71 96 98 85 96 77 99 98 95 92 98 80 79 72 82 73 68 64 65 72 78
10 12 19 27 32 38 40 37 39 37 36 34 44 21 39 44 42 39 42 48 56 94 83 91 98 99 98 99 87 86 98 98 96 89 93 95 100 87 84 83 85 84 74 91 87 89 83
10 11 21 29 35 38 37 35 35 35 31 30 41 21 37 40 42 38 43 47 76 92 93 97 94 96 98 95 93 76 85 91 84 81 96 85 99 93 90 91 85 92 77 75 85 96 82
9 13 20 30 37 38 33 33 35 29 29 25 34 32 33 34 49 45 47 49 64 81 81 94 93 92 87 100 95 98 75 74 78 82 79 95 95 88 81 84 88 94 99 82 82 71 78
9 16 24 32 41 41 33 27 35 27 25 27 35 40 34 41 41 44 50 50 67 68 79 82 92 96 91 96 97 90 98 95 98 91 89 88 99 91 82 93 91 84 92 93 81 96 76
10 20 27 36 45 43 37 31 34 27 26 37 42 41 40 46 43 45 54 58 72 78 76 80 86 90 85 80 85 93 86 94 97 97 100 97 90 100 100 99 97 100 99 92 79 76 91
14 26 28 38 41 45 45 37 35 26 28 40 48 35 45 47 67 48 64 60 60 64 65 78 79 74 73 81 76 76 78 89 100 98 96 93 90 98 100 100 100 100 98 95 90 85 75
13 26 30 36 33 33 36 40 36 25 26 41 50 45 51 59 98 90 68 70 64 61 65 69 82 82 77 77 78 77 78 82 80 85 93 84 88 98 98 98 100 98 98 95 92 87 85
14 23 26 28 32 38 39 40 36 30 28 34 54 44 48 71 88 97 78 72 70 67 64 63 66 70 82 85 82 80 80 77 78 82 85 81 75 77 71 65 72 96 98 92 98 99 80
14 23 29 30 34 41 43 40 33 28 26 30 50 46 44 95 83 100 98 99 90 83 68 62 63 62 75 80 82 67 69 74 83 84 84 82 73 71 72 69 76 73 76 95 98 81 86
12 27 24 31 39 44 38 31 28 26 26 31 36 50 35 63 77 90 90 98 93 90 89 72 66 73 80 77 74 70 69 68 68 76 77 77 66 66 71 70 69 63 56 61 77 82 92
17 20 26 34 40 39 32 28 27 31 30 32 38 50 61 42 76 84 99 97 100 88 78 90 73 75 80 78 79 75 76 71 70 70 68 71 69 64 68 71 71 69 47 46 40 42 50
14 17 27 34 33 30 32 32 34 34 34 38 40 47 61 45 80 86 93 100 98 93 90 83 85 84 78 79 81 84 81 79 81 82 81 76 78 80 80 96 94 39 49 60 61 49 41
7 22 30 35 32 33 36 40 38 39 39 43 43 46 58 51 33 81 92 94 100 96 87 79 87 90 89 89 91 83 85 86 88 91 90 88 85 80 87 85 56 32 47 57 54 47 54
8 19 34 37 31 30 37 42 42 42 41 41 44 50 55 66 54 38 29 59 85 88 87 83 84 90 86 86 81 79 76 74 79 84 91 92 92 86 92 80 85 81 81 71 75 64 61
6 20 26 29 32 33 35 39 43 45 47 46 44 52 56 60 66 70 62 36 32 80 100 100 93 92 92 93 90 82 74 82 84 81 91 87 90 92 80 89 70 58 66 68 87 70 78
9 20 23 23 28 32 35 36 40 42 44 46 44 44 51 54 59 64 68 77 52 27 94 96 98 97 94 89 92 82 76 74 76 80 82 77 84 82 80 87 81 61 67 66 68 82 81
11 14 21 24 26 31 36 38 41 42 45 47 45 50 57 57 61 62 66 70 85 51 30 97 98 91 100 99 96 91 85 78 72 80 78 82 72 66 67 64 68 74 70 67 71 73 86
Wind_Speed
33 34 32 30 28 25 24 24 24 25 28 30 31 37 38 29 21 13 6 3 3 3 7 6 5 7 11 19 17 15 35 47 50 34 27 32 37 36 34 35 34 34 31 34 30 33 31
32 33 32 30 29 26 24 25 26 28 30 30 28 35 38 28 18 13 6 5 2 4 8 9 8 4 8 6 21 17 24 40 53 28 30 31 36 32 32 35 36 34 17 26 28 26 29
32 33 34 32 29 25 23 25 26 29 31 30 26 33 38 30 19 11 4 3 2 5 9 12 9 6 1 5 11 19 30 40 48 40 34 29 30 30 29 25 29 14 24 24 29 29 25
32 34 34 30 28 25 23 24 26 29 32 29 25 27 35 30 21 11 5 3 4 8 11 12 6 1 5 8 21 15 27 44 51 39 29 27 27 25 24 20 26 14 32 25 26 27 22
32 34 34 30 26 26 23 24 27 29 31 31 28 23 28 31 26 13 7 4 4 8 9 5 3 2 6 8 13 22 25 43 43 37 31 32 34 29 30 22 30 23 27 33 28 28 28
31 34 32 29 28 27 25 25 26 28 30 31 29 22 22 26 27 20 11 7 8 7 5 5 5 5 10 9 9 21 29 42 35 42 37 38 39 32 33 31 36 37 31 37 32 35 29
29 32 31 29 28 26 26 25 26 27 27 29 28 23 20 21 19 24 21 15 14 11 6 9 5 3 8 12 11 18 36 25 38 40 41 44 44 45 38 35 13 26 27 27 32 22 34
28 30 30 27 26 25 25 25 25 27 26 27 28 23 19 19 16 16 17 19 19 16 16 14 9 6 8 12 11 12 13 23 35 43 41 43 39 39 34 31 22 24 25 21 20 19 22
27 28 29 29 24 24 24 24 25 26 26 24 25 22 19 18 17 12 10 15 15 18 19 17 13 9 4 7 8 24 10 16 27 35 36 32 30 36 34 32 19 21 19 24 18 21 26
25 26 27 26 23 23 23 23 26 26 26 24 22 22 17 17 17 13 13 7 7 13 10 13 7 6 10 14 13 18 15 17 25 37 32 20 22 35 33 30 24 19 15 10 16 17 17
24 23 25 24 24 25 23 25 25 26 25 24 20 21 18 14 11 11 11 8 7 6 5 4 10 8 15 8 15 3 11 16 30 35 20 15 23 32 31 28 22 19 15 9 8 20 16
22 22 23 24 24 24 24 25 23 24 25 23 19 19 18 14 9 7 6 9 7 4 3 3 7 7 13 3 7 16 12 15 28 25 15 21 23 25 26 25 23 19 13 10 12 16 6
21 21 21 22 24 25 26 25 26 23 22 23 18 15 16 12 9 7 5 4 6 8 3 7 13 14 10 14 17 18 14 24 15 15 14 18 23 22 27 26 23 17 19 3 1 3 8
19 20 20 21 23 27 28 25 25 25 20 17 18 13 12 11 7 10 8 4 8 8 9 11 15 16 15 15 11 13 14 19 18 16 19 14 9 21 24 25 24 24 25 7 7 4 4
18 19 20 20 22 26 28 25 22 24 22 14 13 12 9 9 6 1 2 3 6 9 12 9 7 7 5 5 6 8 12 20 14 17 12 15 9 21 19 26 24 27 26 11 2 4 1
18 18 20 20 21 25 27 25 22 22 20 13 10 9 8 7 5 3 4 5 11 14 10 7 5 3 5 10 6 5 5 13 10 19 12 11 7 17 21 21 24 30 28 13 9 3 4
19 19 21 21 22 23 25 25 20 20 19 11 9 6 6 6 2 3 2 9 16 11 10 5 6 7 8 6 8 5 3 5 5 20 17 13 7 15 21 21 21 24 27 18 11 6 4
18 19 21 19 21 23 24 23 18 19 18 12 8 5 6 5 2 2 6 13 10 8 7 8 10 10 9 7 4 2 6 4 9 18 17 12 7 7 19 16 22 27 24 33 13 8 11
19 19 19 19 20 22 22 19 18 17 17 12 7 7 6 3 2 2 12 7 6 6 7 9 12 12 12 11 5 7 6 6 11 13 11 8 3 8 4 10 13 25 33 32 32 17 20
19 18 18 18 19 19 18 18 18 17 17 13 7 5 6 4 4 4 6 9 7 6 4 4 7 11 14 16 12 8 10 10 15 11 11 8 7 7 11 2 10 21 30 36 37 23 25
17 15 16 16 16 17 16 17 18 18 17 15 8 3 5 6 7 7 7 6 8 8 7 8 7 8 13 11 11 9 10 12 18 17 14 12 9 14 11 8 7 8 17 26 40 40 24
15 13 15 15 14 14 15 17 19 19 17 16 10 5 6 7 8 9 9 7 7 9 8 10 10 12 11 8 9 7 7 11 15 18 17 16 9 11 14 15 14 16 15 18 28 33 34
12 13 14 13 12 13 17 19 20 19 15 16 13 6 7 9 11 12 11 8 8 8 6 8 12 12 13 9 7 6 6 7 6 10 15 14 10 8 4 11 14 19 27 30 29 29 31
12 13 13 12 11 14 17 19 20 20 18 17 15 10 6 10 12 14 14 12 9 8 7 11 11 11 14 13 11 10 10 10 9 10 10 11 12 6 3 4 2 10 10 10 15 26 33
12 11 11 11 12 17 17 18 19 20 20 17 16 12 6 7 9 13 15 16 14 13 11 9 12 13 10 11 11 7 8 10 12 12 11 10 10 5 4 7 19 16 10 11 13 16 15
8 9 9 12 16 15 16 18 20 22 20 19 19 15 11 7 7 11 13 17 16 15 15 14 14 12 9 10 8 6 7 5 6 5 16 15 12 13 7 4 5 3 2 3 9 16 9
7 8 9 11 13 14 16 18 20 22 22 21 22 21 16 10 9 11 15 13 12 15 16 15 14 15 14 15 13 8 7 6 5 7 8 16 15 18 15 8 11 7 7 8 4 5 8
7 6 9 11 12 13 15 18 18 19 22 22 23 22 20 15 15 15 14 16 16 15 17 17 14 16 16 16 13 11 10 10 12 9 8 13 13 12 15 8 9 3 3 6 7 10 9
3 6 8 10 11 13 15 17 18 19 20 21 22 21 19 14 14 16 16 17 15 18 17 22 17 14 16 13 14 9 10 7 10 6 16 12 16 8 11 6 4 5 6 10 8 8 7
Wind_Direction
351 358 4 357 354 352 359 0 357 351 349 354 1 7 2 355 353 353 6 342 103 47 359 1 329 252 238 235 204 175 205 192 187 181 186 190 190 192 193 200 204 210 219 221 215 222 234
348 354 4 355 355 351 357 357 356 353 350 351 1 10 8 4 4 358 24 101 102 29 6 359 340 285 239 234 194 175 201 194 186 174 183 189 191 187 189 197 198 211 205 207 208 216 234
347 350 356 352 353 352 354 355 354 357 354 353 360 11 14 13 8 6 52 37 335 339 336 339 340 340 263 232 223 150 178 181 189 194 191 185 189 189 190 196 200 220 192 192 226 216 212
344 348 357 355 355 353 350 354 354 1 0 356 355 5 19 21 22 8 343 6 312 320 327 326 337 45 173 197 172 148 164 169 177 178 184 187 185 186 181 194 179 175 188 185 208 216 213
345 347 358 356 0 354 350 347 351 359 1 360 354 360 15 22 29 20 341 346 339 322 324 337 357 182 170 180 174 161 171 167 178 179 181 184 176 174 170 171 172 176 185 199 206 204 208
344 345 356 357 0 358 352 347 346 352 360 2 353 358 7 24 29 35 24 7 9 11 31 15 35 129 157 163 160 169 174 171 174 170 171 176 172 171 174 176 183 187 191 197 204 196 204
341 341 348 356 358 360 355 350 351 347 355 2 358 359 1 18 35 39 48 49 58 61 51 53 69 118 155 170 170 182 164 165 188 170 173 172 176 182 181 183 178 197 195 198 206 208 213
338 338 342 352 355 356 354 358 353 351 352 359 2 360 7 10 22 42 52 62 67 69 64 54 67 96 152 159 179 180 180 140 184 175 170 172 189 184 182 185 199 198 205 200 210 196 216
337 336 338 349 357 354 348 351 353 352 352 353 0 3 4 3 8 25 50 61 62 69 57 50 58 76 108 158 175 171 152 156 167 162 174 173 190 186 181 183 176 186 198 203 196 204 218
337 336 336 348 359 356 345 345 346 348 352 348 359 2 0 359 3 12 39 11 53 72 65 30 48 73 114 123 151 179 142 165 143 154 158 164 187 189 187 197 193 187 173 175 216 223 209
339 339 335 345 349 351 352 348 344 341 346 345 352 359 5 360 3 5 40 26 63 74 65 18 77 110 132 142 135 193 105 131 141 146 153 159 174 189 192 190 199 197 192 210 240 213 214
342 342 338 341 347 350 349 343 341 337 342 345 341 358 3 14 14 17 42 53 52 37 29 41 314 106 187 140 116 158 140 165 129 138 138 146 166 177 196 198 200 191 194 202 205 199 228
343 342 341 347 348 349 350 347 341 334 331 340 337 352 356 19 42 42 10 51 67 56 26 25 62 83 122 108 128 150 136 146 151 136 143 159 166 180 192 194 199 198 178 116 211 214 232
341 343 340 345 344 344 350 354 343 342 336 328 335 339 354 3 55 75 63 71 72 102 100 85 90 95 106 103 97 162 153 156 167 166 156 161 182 192 199 197 197 192 182 189 189 204 233
339 343 342 341 343 344 346 354 345 338 338 326 331 326 343 352 359 68 91 74 119 128 122 117 94 98 109 138 139 129 192 196 193 189 179 175 187 195 205 206 203 196 205 212 210 216 208
338 341 339 335 339 340 343 351 345 338 336 329 322 322 320 341 334 359 91 121 143 143 141 134 115 106 158 143 131 123 157 196 219 198 189 183 162 197 206 204 215 221 210 200 202 152 250
337 338 333 334 334 339 342 349 344 344 343 328 319 301 290 324 307 29 99 139 142 149 144 143 130 138 129 156 127 121 145 154 181 187 194 184 193 178 190 200 207 204 197 202 195 216 188
334 335 336 339 340 334 337 345 348 347 346 344 315 289 273 287 310 148 158 148 149 151 168 166 160 159 150 135 132 173 193 166 153 180 188 179 184 153 203 220 219 213 212 212 207 213 230
329 335 340 342 341 337 342 347 350 351 349 345 311 290 259 246 159 227 177 177 168 154 156 168 183 180 182 177 196 210 206 201 185 180 175 183 194 127 156 222 213 222 224 222 215 218 229
325 334 347 347 345 343 350 349 347 347 347 346 317 280 245 229 195 186 177 202 210 204 182 177 189 199 196 200 213 216 212 206 196 193 205 214 235 212 199 213 217 218 227 225 224 227 230
327 342 355 349 347 348 357 354 352 353 343 338 322 289 248 215 198 197 212 224 218 235 221 202 191 195 187 203 213 225 217 215 203 209 213 218 246 236 245 246 250 245 240 224 223 230 229
327 352 353 356 355 0 5 3 358 353 342 335 329 289 254 228 210 209 207 226 224 237 240 218 201 186 189 196 215 232 209 216 216 222 224 229 241 245 249 247 250 254 247 238 238 245 246
337 352 353 359 353 0 6 6 0 357 350 334 335 304 243 231 216 195 192 205 224 216 241 210 202 194 203 213 213 233 234 250 223 225 227 226 239 249 249 248 256 269 253 243 248 247 244
336 351 349 352 356 6 2 0 359 0 356 346 344 331 273 235 217 218 212 207 212 226 223 212 201 203 212 219 232 243 247 253 239 232 229 231 228 224 282 235 282 242 238 238 259 252 253
336 349 342 342 347 349 356 2 0 358 356 352 346 348 320 259 244 236 236 228 230 235 224 211 204 198 222 222 226 213 213 224 235 237 228 225 205 219 237 236 280 269 251 265 271 266 252
340 340 338 338 336 350 354 357 359 354 348 344 341 341 340 319 276 254 251 247 241 236 223 211 201 199 191 178 185 208 195 196 195 220 220 214 218 222 219 249 253 204 188 313 299 294 266
352 352 347 356 356 357 358 356 4 354 346 342 336 330 331 325 296 270 258 254 241 222 211 212 207 207 199 201 212 224 220 204 210 204 202 202 216 227 236 250 276 262 273 271 253 311 314
20 2 5 360 359 353 353 353 0 355 345 340 333 332 327 321 290 274 266 259 245 236 214 214 203 222 217 212 218 216 236 225 233 223 226 202 204 221 231 236 267 286 228 246 297 300 309
37 31 21 9 3 358 355 354 356 353 345 339 332 330 327 330 292 282 267 263 259 233 226 215 202 220 215 208 213 210 217 219 229 233 227 225 230 216 216 240 264 271 278 299 310 313 305